STARLINK-31260, 58881

Orbit data source: Space-Track

STARLINK-31260, 58881 is a payload satellite owned by SpaceX/Seattle (US) in LEO that was launched on Mon, 29 Jan 2024 UTC via an FALCON 9 launch vehicle from the Air Force Western Test Range (AFWTR). Payload-class satellites include a variety of spacecraft equipped with specific instruments for various scientific and technological missions. These include communications satellites like Starlink; space stations such as the ISS; scientific satellites like the Hubble; Earth observation satellites from companies like Planet Labs, Umbra, and HawkEye 360; GPS; miniature CubeSats for education and research; and military/defense satellites.

Loading next visibility...
Identifier
58881, 2024-020F
Orbit
LEO
Country
Flag of USUS
Related business
Manufacturer
SpaceX/Seattle
Mission
Operational Commercial Communications
Bus & Motor
STARLINK V2M, Unknown motor
Mass
730 kg wet, ~700 kg dry
Launch date (UTC)
2024-01-29 (2 years ago)
Launch vehicle
FALCON 9
Launch site
Air Force Western Test Range (AFWTR)
Object type
Payload
Rocket body
Debris
Shape & HBR
Box + 2 Pan, 17.7 m
Radar Cross Section
33.884 m², Large (>1 m²)

Expand to show TLE details & history
Last TLE update: 2 days ago

TLE from 2 days ago
0 STARLINK-31260
1 58881U 24020F   26171.36174117  .00002065  00000-0  72279-4 0  9999
2 58881  53.1598 204.6018 0001153  82.9151 277.1983 15.34383876133800
Epoch: 2026-06-20T08:40Z
TLE epoch observation values (Epoch: 2026-06-20T08:40:54.437Z)
Latitude
0.00003°
Longitude
165.79754°
Altitude
463.554 km
Speed
7.636 km/s
True Right ascension
13h 38m 24s
True Declination
0° 00' 00"
Sunlit
Object was in full shadow at epoch
Visualization orbit readout
Latitude
Unknown
Longitude
Unknown
Altitude
Unknown
Speed
Unknown
Apparent Right ascension
Unknown
Apparent Declination
Unknown
Sunlit
N/A
Visualization observer readout
Local Sidereal Time
21:34:08
Azimuth
Unknown
Elevation
Unknown
Doppler factor
Unknown
Orbital elements
Apogee altitude
463.797 km
Perigee altitude
462.219 km
Semi-major axis
6,841.145 km
Eccentricity
0.00012
Inclination
53.1598°
RAAN
204.6018°
Arg. of periapsis
82.9151°
True anomaly
277.18519°
Mean anomaly
277.1983°
Eccentric anomaly
277.19175°
Mean motion
3.83575 °/min
Orbital period
93.85 mins
BSTAR
0.000072279
Loading maneuver chart data...
Computing Atmospheric mass density...
Loading historical data...
Loading historical data...
Loading historical data...
Loading historical data...
Loading historical data...
Loading historical data...
Loading historical data...

Documentation

Showing up to 5 results
|